Home   Weather   Ely   Past weeks

Flag for United Kingdom Past Weather in Ely, England, United Kingdom — Yesterday and Last 2 Weeks

Now
39 °F

Fog.


Feels Like: 37 °F
Forecast: N/A
Wind: 3 mph from West

Location: Mildenhall Royal Air Force Base

Current Time: Jan 23, 2017 at 3:25:33 pm

Latest Report: Jan 23, 2017 at 2:58 pm


Visibility: 3 mi

Pressure: 30.32 "Hg

Humidity: 100%

Dew Point: 39 °F

Location of ElyLocation

Past Weather in Ely — Graph

°F

Ely Temperature Yesterday

Maximum temperature yesterday: 41 °F (at 1:58 pm)
Minimum temperature yesterday: 23 °F (at 5:21 am)
Average temperature yesterday: 28 °F

High & Low Weather Summary for the Past Weeks

 TemperatureHumidityPressure
High50 °F (Jan 8, 1:58 pm)100% (Jan 8, 1:58 pm)30.69 "Hg (Jan 8, 1:58 pm)
Low23 °F (Jan 22, 5:21 am)54% (Jan 19, 11:58 am)29.32 "Hg (Jan 12, 7:21 pm)
Average37 °F96%30.19 "Hg
* Reported Jan 8 1:58 pm — Jan 23 1:58 pm, Ely, Weather by CustomWeather, © 2017

Note: Actual official high and low records may vary slightly from our data, if they occured in-between our weather recording intervals... More about our weather records

Advertising

Ely Weather History for the Previous 24 Hours

Scroll right to see more
 ConditionsComfort  
Time TempWeatherWind HumidityBarometerVisibility
1:58 pm
Mon, Jan 23
40 °FFog.5 mph100%30.32 "Hg3 mi
12:58 pm39 °FFog.3 mph100%30.33 "Hg3 mi
12:38 pm37 °FFog.5 mph100%30.33 "Hg3 mi
11:43 am37 °FFog.No wind100%30.34 "Hg2 mi
10:58 am36 °FFog.No wind100%30.36 "Hg2 mi
10:18 am36 °FFog.3 mph100%30.35 "Hg2 mi
9:38 am32 °FIce fog.5 mph100%30.34 "Hg1 mi
8:58 am34 °FFog.3 mph100%30.34 "Hg2 mi
8:18 am34 °FFog.5 mph100%30.33 "Hg2 mi
7:41 am32 °FIce fog.No wind100%30.33 "Hg2 mi
6:58 am33 °FFog.3 mph100%30.33 "Hg3 mi
6:13 am32 °FIce fog.5 mph100%30.32 "Hg3 mi
4:58 am32 °FIce fog.No wind100%30.34 "Hg4 mi
3:58 am31 °FIce fog.No wind100%30.33 "Hg4 mi
3:23 am32 °FIce fog.No wind100%30.32 "Hg4 mi
2:58 am31 °FIce fog.No wind100%30.33 "Hg4 mi
2:39 am32 °FIce fog.No wind100%30.32 "Hg4 mi
2:34 am32 °FIce fog.No wind100%30.32 "Hg4 mi
1:58 am30 °FIce fog.3 mph100%30.33 "Hg4 mi
1:42 am32 °FIce fog.No wind100%30.33 "Hg4 mi
1:34 am32 °FIce fog.No wind100%30.33 "Hg4 mi
12:58 am30 °FIce fog.3 mph100%30.35 "Hg4 mi
11:58 pm
Sun, Jan 22
29 °FIce fog.No wind100%30.35 "Hg4 mi
11:18 pm28 °FIce fog.3 mph100%30.34 "Hg4 mi
10:58 pm27 °FIce fog.5 mph100%30.35 "Hg4 mi
10:32 pm27 °FIce fog.3 mph100%30.34 "Hg3 mi
10:04 pm27 °FIce fog.No wind100%30.34 "Hg3 mi
9:38 pm30 °FIce fog.No wind100%30.33 "Hg4 mi
9:18 pm28 °FIce fog.No wind100%30.32 "Hg3 mi
8:58 pm28 °FIce fog.5 mph100%30.34 "Hg3 mi
8:28 pm28 °FIce fog.3 mph100%30.33 "Hg3 mi
7:58 pm27 °FIce fog.5 mph100%30.34 "Hg4 mi
7:33 pm28 °FIce fog.3 mph100%30.33 "Hg3 mi
7:00 pm28 °FIce fog.No wind100%30.33 "Hg3 mi
6:20 pm28 °FIce fog.No wind100%30.32 "Hg5 mi
5:58 pm30 °FIce fog.3 mph100%30.33 "Hg6 mi
4:58 pm35 °FClear.No wind100%30.32 "HgN/A
3:58 pm36 °FSunny.5 mph100%30.32 "HgN/A
Weather by CustomWeather, © 2017

See weather overviewHow to use our weather pages